Temperature
20 20 20 20 20 21 22 23 23 23 24 24 24 24 22 21 20 19 17 18 18 17 17 17 17 17 17 17 17 17 17 17 17 17 17 17 17 17 17 17 17 17 17 17 17 17 17 17 17
20 20 20 20 21 22 22 23 23 23 23 23 24 23 22 20 19 18 17 17 17 17 17 17 17 17 17 17 17 17 17 16 17 17 17 16 17 17 17 17 17 17 17 17 17 17 17 17 17
21 20 21 21 23 23 22 23 23 23 23 23 23 22 21 19 18 17 17 17 17 17 17 17 17 17 17 17 17 16 16 16 16 16 16 16 16 16 16 16 17 17 17 17 17 17 17 17 17
21 21 22 22 23 23 23 23 23 23 23 23 23 21 19 18 18 17 17 17 17 17 17 17 17 17 17 17 17 17 16 16 16 16 16 16 16 16 16 16 16 17 17 17 17 17 17 17 17
21 22 22 23 23 23 24 23 23 23 23 22 22 20 18 17 18 18 17 17 17 17 17 17 17 17 17 17 16 16 16 16 16 16 16 16 16 16 16 16 16 16 17 16 16 17 17 17 17
22 23 22 23 23 23 24 23 23 23 22 22 21 20 18 17 17 17 17 17 17 17 17 17 17 17 17 16 16 16 16 16 16 16 16 16 16 16 16 16 16 16 16 16 16 17 17 17 17
22 22 23 23 23 23 23 23 23 22 22 21 21 20 18 17 17 17 17 17 17 17 17 17 17 17 17 16 16 16 16 16 16 16 16 16 16 16 16 16 16 16 16 16 16 16 16 16 17
22 23 23 23 22 22 23 23 22 22 21 21 21 20 18 17 17 17 17 17 17 17 17 17 17 17 17 16 16 16 16 16 16 16 16 16 16 16 16 16 16 16 16 16 16 16 16 16 16
23 23 22 23 22 22 23 23 22 22 21 21 20 19 18 18 17 17 17 17 17 17 17 17 17 17 16 16 16 16 16 16 16 16 16 16 16 16 16 16 16 16 16 16 16 16 16 16 16
23 22 22 23 23 23 23 23 22 22 21 20 19 18 18 18 17 17 17 17 17 17 17 17 17 17 17 17 16 16 16 16 16 16 16 16 16 16 16 16 16 16 16 16 16 16 16 16 16
23 22 23 23 23 23 23 23 22 22 21 20 19 18 18 18 18 18 18 18 17 17 17 17 17 17 17 17 16 16 16 16 16 16 16 16 16 16 16 16 16 16 16 16 16 16 16 16 16
23 23 23 23 23 23 23 23 22 21 21 20 19 19 18 18 18 18 18 18 18 17 17 17 17 17 17 17 17 16 16 16 16 16 16 16 16 16 16 16 16 16 16 16 16 16 16 16 16
23 23 23 22 22 22 22 22 22 21 20 20 19 19 19 18 18 18 18 18 17 17 17 17 17 17 17 17 17 16 16 16 16 16 16 16 16 16 16 16 16 16 16 16 16 16 16 16 16
23 23 22 22 22 22 22 22 22 21 20 20 19 19 19 18 18 18 18 18 18 17 17 17 17 17 17 17 17 16 16 16 16 16 16 16 16 16 16 16 16 16 16 16 16 16 16 16 16
23 23 23 22 23 22 22 21 21 21 20 20 20 19 19 19 18 18 18 18 18 17 17 17 17 17 17 17 17 16 16 16 16 16 16 16 16 16 16 16 16 16 16 16 16 16 15 15 15
23 23 22 22 23 23 22 20 21 20 20 20 20 19 19 19 18 18 18 18 18 18 17 17 17 17 17 17 16 16 16 16 16 16 16 16 16 16 16 16 16 16 16 16 16 16 15 15 15
23 22 22 22 23 23 22 21 21 20 20 20 20 20 19 19 19 18 18 18 18 17 17 17 17 17 17 16 16 16 16 16 16 16 16 16 16 16 16 16 16 15 15 15 15 15 15 15 15
22 23 23 23 23 23 22 21 21 21 21 21 20 20 20 19 19 18 18 18 18 18 17 17 17 17 16 16 16 16 16 16 16 16 16 16 16 16 16 15 15 15 15 15 15 15 15 15 15
24 23 23 23 24 23 23 22 22 22 21 21 21 20 20 20 19 19 18 18 18 18 17 17 17 17 16 16 16 16 16 16 16 16 16 16 16 16 15 15 15 15 15 15 15 15 15 15 15
24 23 23 23 24 23 23 23 23 22 22 21 21 21 20 20 19 19 18 18 18 18 17 17 17 17 16 16 16 16 16 16 16 16 16 16 16 16 15 15 15 15 15 15 15 15 15 15 15
24 23 23 23 23 24 23 22 23 23 22 21 21 21 21 20 20 19 18 18 18 18 18 17 17 17 17 16 16 16 16 16 16 16 16 16 16 16 15 15 15 15 15 15 15 15 15 15 15
23 24 24 23 23 22 23 21 22 22 22 22 21 21 21 20 20 19 19 18 18 18 18 17 17 17 17 16 16 16 16 16 16 16 16 16 16 15 15 15 15 15 15 15 15 15 15 15 15
24 24 24 23 23 22 23 22 22 23 22 22 22 21 21 21 20 20 19 19 18 18 18 17 17 17 17 17 16 16 16 16 16 16 16 16 15 15 15 15 15 15 15 15 15 15 15 15 15
24 24 24 23 23 21 23 23 22 23 23 23 23 22 21 21 20 20 19 19 18 18 18 17 17 17 17 16 16 16 16 16 16 16 16 16 15 15 15 15 15 15 15 15 15 15 15 15 15
24 22 21 21 21 22 24 24 23 24 25 24 23 23 22 21 21 20 19 19 18 18 18 17 17 17 17 16 16 16 16 16 16 16 16 16 15 15 15 15 15 15 15 15 15 15 15 15 15
23 23 21 21 21 22 24 23 24 25 25 25 24 23 22 21 21 20 19 19 18 18 18 17 17 17 17 16 16 16 16 16 16 16 16 16 16 15 15 15 15 15 15 15 15 15 15 15 15
23 23 23 22 23 22 23 23 24 25 25 25 24 23 23 22 21 20 20 19 18 18 18 17 17 17 17 17 16 16 16 16 16 16 16 16 15 15 15 15 15 15 15 15 15 15 15 15 15
25 24 24 22 21 21 22 22 22 23 24 24 24 24 23 22 21 20 20 19 18 18 18 17 17 17 17 17 17 16 16 16 16 16 16 16 16 15 15 15 15 15 15 15 15 15 15 15 15
24 24 24 23 23 22 21 22 24 23 24 24 24 24 23 22 21 21 20 19 19 18 18 18 17 17 17 17 17 17 16 16 16 16 16 16 16 15 15 15 15 15 15 15 15 15 15 14 14
25 25 24 22 22 23 22 22 25 25 25 25 24 24 23 22 21 21 20 19 19 18 18 18 17 17 17 17 17 17 16 16 16 16 16 16 16 15 15 15 15 15 15 15 14 14 14 14 14
Wind_Speed
8 8 5 2 3 2 1 4 6 5 5 6 7 8 11 11 8 7 3 7 9 10 11 11 11 10 10 11 11 12 12 12 12 11 10 11 11 11 10 10 10 10 9 9 9 9 9 9 9
8 5 3 3 3 1 3 5 8 8 6 4 6 10 12 10 10 7 4 7 8 10 11 11 11 11 11 12 12 12 12 12 12 11 11 10 10 10 10 10 10 10 9 9 8 9 9 9 8
8 5 3 3 2 2 3 6 7 7 5 5 6 10 8 6 7 5 5 7 9 11 12 11 11 11 12 12 12 12 12 11 11 11 10 10 10 10 9 9 9 9 9 9 9 8 9 8 8
4 3 3 1 2 5 5 6 5 5 5 6 7 9 7 7 5 6 6 9 10 11 12 12 11 12 12 12 12 12 11 11 11 10 9 9 9 9 9 9 9 9 9 9 9 9 9 8 8
3 3 2 1 2 6 6 5 4 5 5 8 10 9 7 8 9 9 8 9 10 10 12 12 11 11 11 11 11 11 11 11 10 9 8 8 9 9 9 10 10 9 9 9 9 9 9 9 9
2 3 2 1 4 6 6 5 5 7 7 7 8 9 6 7 8 8 9 8 9 10 11 12 11 12 11 12 11 11 10 10 9 8 8 8 8 9 9 9 10 10 9 9 9 9 9 9 8
3 3 2 1 3 5 5 5 6 6 6 6 4 7 7 7 6 7 8 7 7 8 9 10 11 11 12 12 11 10 9 8 7 7 6 6 7 8 9 9 9 9 9 8 8 8 8 7 7
3 2 2 2 3 4 5 5 6 6 6 5 4 6 7 8 7 7 7 6 6 6 7 7 9 11 11 11 9 8 8 7 5 5 5 5 5 7 8 8 9 8 8 7 7 7 6 5 4
3 2 2 3 3 4 5 6 5 5 6 7 9 9 10 11 9 8 7 6 6 6 5 6 7 7 9 9 8 7 7 6 4 4 4 4 4 6 7 8 8 7 6 5 5 5 4 3 2
2 1 3 4 4 4 5 5 4 4 6 8 11 12 12 10 9 8 8 7 6 5 4 5 6 5 6 6 6 5 5 4 4 2 2 2 4 7 8 8 6 5 4 3 2 2 2 1 1
1 2 3 4 5 4 4 4 3 4 4 6 10 12 10 9 8 7 7 7 6 5 4 4 4 5 5 4 4 3 4 3 4 3 3 4 4 5 6 6 6 4 3 1 2 1 1 1 3
2 3 3 3 4 2 2 3 4 5 5 8 10 12 11 9 7 7 7 6 6 6 4 3 4 4 5 5 3 3 2 2 3 3 4 4 2 2 2 2 4 3 2 2 2 2 4 6 6
2 2 3 3 3 3 4 4 4 6 8 9 9 10 9 8 7 7 7 6 6 6 5 4 4 5 4 3 1 3 3 3 4 4 4 4 2 2 2 3 3 4 4 2 3 4 5 6 7
3 4 4 3 3 2 3 3 3 6 8 8 9 8 8 7 7 7 7 6 7 5 5 5 4 4 3 3 2 3 3 4 4 4 4 4 3 2 2 2 3 3 3 3 4 5 4 5 5
4 4 3 2 3 3 2 2 3 6 7 7 7 7 8 7 6 6 6 6 6 6 6 5 4 4 4 4 3 3 3 4 4 4 6 5 5 4 3 3 3 3 5 6 5 5 4 4 4
5 4 3 3 4 4 3 2 5 6 6 7 7 7 7 7 7 6 6 5 5 6 6 5 4 5 4 3 3 3 4 4 4 5 7 7 6 6 4 3 3 4 5 4 2 3 4 4 4
4 3 3 3 4 3 3 2 6 7 6 6 7 8 8 8 8 7 6 6 6 6 6 5 4 5 4 2 3 3 4 4 4 6 6 7 8 7 5 2 2 5 3 2 3 4 3 3 3
2 2 1 2 3 3 3 3 7 9 8 7 7 8 9 9 9 8 7 6 6 6 6 6 4 3 4 2 3 3 3 3 5 5 5 7 7 8 6 2 4 5 4 4 4 4 3 2 2
4 3 1 1 3 2 3 4 6 8 8 7 7 7 8 8 9 9 8 7 6 6 6 6 6 4 4 2 2 2 2 2 3 3 5 5 6 6 5 3 3 4 4 3 4 3 3 2 2
4 3 1 1 1 2 4 5 6 8 9 8 8 8 8 8 10 11 10 8 7 6 6 7 6 5 5 2 2 2 2 2 3 2 4 5 5 5 4 3 3 4 3 4 4 3 2 2 2
3 3 2 1 2 5 5 5 6 8 8 8 8 8 8 9 12 12 11 9 8 7 6 6 6 6 6 4 2 2 2 2 2 2 2 3 5 6 5 4 3 2 3 3 3 3 3 2 3
3 2 3 4 4 4 6 3 4 8 9 10 9 8 8 8 9 11 11 10 9 7 7 6 6 6 6 5 3 2 2 2 2 2 2 2 4 5 5 5 4 3 3 3 2 3 2 2 2
2 3 5 8 7 7 7 3 2 7 8 10 10 10 9 10 10 11 11 10 9 8 7 6 5 5 5 5 4 1 2 1 2 3 3 3 3 4 5 5 4 4 3 3 4 4 3 2 2
3 5 7 7 5 5 6 4 2 4 6 8 10 11 11 11 10 11 10 9 8 8 6 5 5 5 4 4 4 3 2 2 3 3 3 2 3 2 3 4 4 4 3 3 3 3 3 3 3
4 3 2 2 3 3 1 1 2 3 4 5 8 10 11 11 11 11 11 10 9 9 8 6 6 6 5 5 4 4 3 2 3 3 3 2 3 2 2 3 3 3 2 3 3 2 2 2 3
4 3 2 2 2 2 1 1 3 5 5 5 6 8 10 10 11 11 11 10 10 10 9 8 7 7 6 5 4 4 4 2 3 3 3 2 2 3 3 3 3 3 3 3 3 2 2 2 3
3 4 5 5 5 3 0 2 4 5 5 5 7 7 9 11 11 11 11 11 10 10 9 9 9 7 7 5 4 4 4 3 3 3 2 2 2 2 3 3 3 3 3 3 3 2 2 3 4
6 5 3 2 2 2 0 1 1 3 3 3 6 7 8 10 11 11 11 11 11 10 9 9 9 8 7 6 5 5 5 4 3 2 3 3 2 3 3 3 3 4 3 3 3 2 2 3 3
6 5 3 3 3 2 1 1 3 3 3 4 5 5 7 9 10 11 10 10 10 9 9 8 8 8 7 7 6 5 5 5 4 3 3 3 2 2 2 2 2 4 4 3 3 2 2 2 2
5 5 4 3 3 3 1 1 4 4 4 4 5 5 6 8 9 10 10 10 10 10 10 9 9 8 7 7 7 6 5 5 5 4 4 3 3 2 2 2 2 3 3 2 3 2 1 2 3
Wind_Direction
253 232 224 231 244 230 48 54 70 59 61 52 50 64 69 51 54 89 106 85 93 98 101 92 86 86 88 90 87 85 82 79 77 74 73 72 71 71 70 70 72 70 70 70 69 67 66 66 66
261 243 233 237 255 275 69 70 70 67 79 84 64 68 73 67 71 92 93 87 96 100 96 91 91 89 89 90 88 86 82 79 78 74 72 71 70 69 69 70 70 70 69 69 70 70 68 67 66
251 249 250 247 314 23 70 79 87 84 73 61 73 63 59 61 75 85 105 103 98 94 95 96 95 93 90 89 89 86 83 81 78 74 71 70 70 70 69 69 70 70 67 67 67 70 69 67 62
249 242 237 244 16 47 71 91 96 97 87 67 79 76 71 50 73 98 103 101 98 95 98 101 98 97 92 89 87 84 84 80 76 73 70 68 68 70 68 67 70 71 69 70 67 68 68 65 61
239 253 241 235 60 72 77 82 87 84 83 68 74 88 80 71 87 99 96 92 97 99 101 104 104 102 97 92 88 86 84 79 78 75 72 70 71 71 71 70 72 73 70 70 69 68 66 64 58
264 260 262 3 78 78 75 81 79 80 84 82 87 98 91 97 92 93 96 95 98 104 106 108 109 108 104 100 92 88 85 83 82 80 78 77 77 76 74 74 74 73 71 72 72 69 67 64 59
289 294 298 14 83 81 75 79 82 85 82 70 69 98 111 112 104 98 96 91 93 104 115 118 120 115 110 107 102 98 96 93 92 90 91 92 93 91 85 79 76 75 75 75 76 76 72 68 61
293 292 302 18 72 85 85 78 82 80 78 73 63 100 123 130 125 116 108 107 108 108 115 123 120 122 124 119 117 118 117 114 114 117 118 117 114 110 99 88 81 80 81 83 85 91 89 83 67
268 271 360 31 63 88 96 92 86 89 87 77 69 83 117 131 130 127 124 116 104 99 107 111 111 115 124 127 126 140 142 143 145 158 169 183 174 132 107 99 99 94 93 94 98 109 116 115 85
269 345 28 38 59 99 98 95 112 114 100 99 98 102 122 134 138 137 137 127 119 115 113 112 117 120 112 103 124 142 129 137 151 128 128 143 106 103 108 113 115 121 122 120 130 154 173 185 131
1 41 42 46 54 84 97 93 95 117 104 108 124 131 138 139 142 138 133 130 124 114 101 102 117 115 113 103 99 80 87 83 79 67 82 73 92 130 139 150 156 164 166 175 155 188 209 103 71
74 63 53 64 57 60 92 97 80 69 86 105 123 139 146 145 146 140 129 124 119 115 117 109 102 99 96 95 99 106 89 68 59 22 68 69 47 60 92 118 134 136 90 42 56 69 57 58 54
100 94 87 83 87 86 97 94 92 96 107 111 123 135 146 145 146 137 136 137 132 129 128 101 82 82 86 81 74 83 68 48 60 24 36 74 57 47 63 73 69 80 88 66 39 53 54 52 46
97 108 116 124 124 126 123 128 129 118 126 130 135 144 146 142 145 148 150 145 135 132 121 107 96 86 87 92 76 73 75 62 57 26 17 59 58 57 66 72 62 65 67 67 73 70 59 61 55
151 154 151 166 169 155 147 131 141 133 142 144 146 146 144 148 157 152 142 136 132 128 116 103 96 77 67 58 55 71 69 62 57 31 15 41 57 49 50 62 65 64 64 57 58 68 65 74 69
216 209 188 188 193 181 197 166 147 150 160 157 153 150 154 159 163 149 147 134 126 121 119 121 111 94 79 60 40 55 57 52 56 46 21 17 44 58 51 52 54 58 67 73 69 56 60 55 57
228 242 184 176 176 193 210 165 159 169 178 172 167 164 166 169 164 156 153 138 134 136 138 134 111 113 104 95 78 52 62 55 56 54 30 15 26 48 66 50 53 57 55 50 68 59 55 58 58
282 267 213 164 171 196 198 194 176 179 185 185 181 177 174 171 168 159 155 145 150 152 145 138 131 127 120 95 84 63 46 47 59 58 41 23 27 37 55 58 53 53 50 45 69 76 57 49 37
302 320 320 134 157 218 220 212 192 184 185 190 187 182 180 176 168 156 156 152 160 159 150 149 147 134 111 89 82 87 74 56 61 65 51 32 41 38 44 54 56 54 58 47 68 70 51 36 49
267 277 269 135 145 262 243 230 201 180 188 193 194 187 185 176 167 162 166 163 167 162 157 152 145 131 118 114 118 130 123 102 89 63 50 33 46 45 51 61 68 67 62 50 61 68 40 9 34
262 273 290 261 222 240 250 240 202 184 185 190 198 190 184 181 174 169 170 167 166 167 166 154 149 143 137 135 103 79 75 65 83 82 60 38 53 47 37 43 70 82 76 73 69 68 60 16 360
282 310 289 276 260 254 233 268 199 182 186 193 194 190 183 180 176 169 169 167 169 167 162 161 162 153 141 133 110 114 107 103 105 118 111 84 67 64 46 37 47 70 73 72 57 73 68 59 14
271 286 271 270 271 274 252 261 203 176 186 193 191 191 187 180 175 168 169 165 167 161 160 165 155 137 128 126 125 125 95 99 104 103 101 90 71 65 64 45 39 55 61 71 64 62 51 54 47
249 265 266 259 264 273 247 221 196 174 186 182 184 186 188 179 175 167 163 158 157 150 153 155 143 127 127 133 144 147 117 102 102 101 103 105 95 62 69 62 49 56 53 59 62 66 61 44 34
248 272 290 247 220 247 242 190 129 133 145 165 177 179 183 177 171 168 163 163 159 156 159 155 146 146 151 160 161 146 142 139 123 117 115 104 102 91 78 75 64 60 54 58 56 57 74 66 56
246 249 270 295 280 298 336 101 114 123 131 149 160 163 167 169 171 170 166 163 162 163 164 162 162 161 161 165 159 150 149 133 115 111 111 101 97 105 105 97 92 80 58 69 58 32 34 50 64
245 248 257 283 291 292 179 118 120 122 124 146 155 156 161 166 168 166 164 163 165 168 169 169 167 163 161 163 157 153 139 123 113 118 110 104 110 112 109 114 106 94 71 58 66 49 41 48 40
250 269 270 274 295 299 187 149 129 117 127 146 154 156 162 165 165 164 165 164 167 167 169 171 167 166 163 165 166 153 138 133 133 122 108 107 99 99 115 128 125 117 109 87 60 46 36 70 71
220 240 257 268 265 287 312 72 133 153 157 157 145 144 155 163 163 162 163 164 161 163 166 168 166 166 164 166 161 148 143 146 142 134 130 121 110 115 122 107 109 117 116 109 92 48 28 47 68
240 246 242 254 287 284 281 73 131 147 139 131 130 136 145 151 154 155 156 157 159 168 173 172 171 171 167 167 161 154 154 157 156 156 150 144 136 140 142 130 119 111 107 108 117 105 52 48 48
Height
1502 1502 1503 1506 1506 1507 1506 1502 1498 1499 1500 1502 1501 1502 1506 1511 1515 1526 1526 1524 1524 1524 1524 1524 1525 1525 1525 1526 1526 1527 1527 1528 1528 1528 1529 1529 1529 1529 1529 1529 1529 1529 1530 1530 1530 1531 1531 1532 1533
1502 1503 1505 1505 1506 1509 1509 1502 1502 1502 1503 1503 1503 1505 1509 1515 1519 1522 1524 1525 1525 1525 1525 1525 1526 1526 1526 1527 1528 1528 1529 1529 1529 1530 1530 1530 1530 1530 1530 1530 1530 1530 1531 1531 1531 1532 1532 1533 1533
1502 1503 1505 1503 1503 1507 1508 1503 1502 1503 1504 1504 1506 1509 1514 1519 1522 1523 1525 1525 1526 1526 1526 1526 1527 1527 1528 1528 1529 1529 1530 1530 1531 1531 1531 1531 1531 1531 1531 1532 1532 1531 1532 1532 1532 1533 1533 1534 1534
1503 1504 1504 1504 1506 1502 1501 1502 1503 1504 1505 1506 1507 1513 1519 1522 1523 1524 1526 1526 1527 1527 1527 1527 1528 1528 1529 1530 1530 1530 1531 1531 1532 1532 1532 1532 1533 1533 1533 1533 1533 1533 1533 1533 1533 1534 1534 1535 1535
1503 1503 1503 1505 1503 1501 1500 1502 1504 1505 1506 1509 1510 1516 1522 1524 1524 1525 1526 1527 1528 1528 1528 1529 1529 1530 1530 1531 1531 1532 1532 1532 1533 1533 1533 1534 1534 1534 1534 1534 1534 1534 1534 1534 1534 1535 1535 1536 1536
1504 1502 1506 1508 1505 1502 1501 1503 1505 1507 1509 1511 1513 1517 1524 1526 1526 1527 1528 1528 1529 1529 1530 1530 1530 1531 1532 1532 1533 1533 1533 1534 1534 1534 1535 1535 1535 1536 1536 1536 1535 1535 1535 1535 1536 1536 1536 1537 1537
1505 1503 1505 1505 1506 1505 1505 1505 1507 1509 1511 1513 1514 1518 1524 1527 1528 1528 1529 1530 1531 1531 1531 1532 1532 1532 1533 1534 1535 1535 1535 1536 1536 1536 1536 1537 1537 1537 1537 1537 1537 1537 1537 1537 1537 1537 1538 1538 1538
1504 1504 1504 1504 1507 1508 1506 1507 1509 1511 1513 1515 1516 1519 1524 1527 1528 1529 1530 1531 1532 1533 1534 1534 1534 1534 1535 1536 1537 1537 1537 1538 1538 1538 1538 1539 1539 1539 1539 1539 1539 1538 1538 1538 1538 1539 1539 1540 1540
1504 1506 1508 1507 1507 1508 1507 1509 1511 1513 1514 1516 1518 1520 1523 1526 1528 1530 1531 1532 1534 1534 1535 1536 1536 1537 1538 1538 1539 1539 1539 1539 1540 1540 1540 1541 1541 1541 1541 1541 1541 1540 1540 1540 1540 1540 1541 1541 1542
1503 1508 1508 1505 1505 1507 1508 1510 1512 1514 1515 1518 1520 1523 1525 1527 1528 1530 1531 1533 1534 1535 1537 1538 1538 1539 1540 1540 1540 1541 1541 1541 1542 1542 1542 1543 1543 1543 1543 1543 1543 1542 1542 1542 1542 1542 1543 1543 1543
1503 1506 1505 1506 1506 1507 1509 1511 1512 1513 1516 1518 1521 1524 1526 1528 1529 1531 1532 1534 1535 1537 1538 1539 1540 1540 1541 1542 1542 1543 1543 1543 1544 1544 1544 1544 1544 1545 1544 1544 1544 1544 1544 1544 1544 1544 1544 1544 1545
1504 1506 1506 1508 1509 1509 1510 1512 1514 1515 1518 1519 1521 1523 1526 1528 1530 1531 1533 1535 1536 1537 1539 1540 1541 1542 1542 1543 1543 1544 1544 1545 1545 1545 1546 1546 1546 1546 1546 1546 1546 1546 1546 1546 1546 1546 1546 1546 1546
1505 1507 1508 1510 1511 1511 1512 1513 1515 1517 1519 1521 1522 1525 1526 1528 1530 1532 1534 1535 1537 1538 1540 1541 1542 1543 1543 1544 1545 1545 1545 1546 1546 1546 1547 1547 1547 1547 1547 1548 1548 1548 1547 1547 1547 1547 1547 1547 1547
1507 1508 1509 1511 1511 1512 1513 1514 1516 1518 1520 1522 1523 1525 1527 1529 1531 1533 1534 1536 1538 1539 1540 1542 1543 1543 1544 1545 1545 1546 1546 1547 1547 1547 1547 1548 1548 1548 1548 1548 1548 1549 1549 1549 1549 1548 1548 1548 1548
1507 1508 1510 1511 1511 1512 1513 1515 1516 1518 1520 1522 1524 1525 1527 1529 1531 1533 1534 1536 1538 1539 1541 1542 1544 1544 1545 1546 1546 1547 1547 1547 1548 1548 1548 1549 1549 1549 1549 1549 1549 1550 1550 1549 1550 1550 1550 1550 1550
1506 1508 1513 1510 1509 1511 1515 1521 1517 1518 1520 1521 1523 1525 1527 1529 1531 1533 1534 1536 1538 1539 1541 1543 1544 1545 1545 1546 1547 1548 1548 1548 1548 1548 1548 1549 1549 1549 1550 1550 1550 1550 1550 1551 1551 1551 1551 1551 1551
1508 1512 1512 1510 1508 1509 1512 1517 1516 1517 1519 1520 1522 1524 1526 1528 1531 1533 1534 1536 1538 1540 1541 1543 1544 1545 1546 1547 1548 1548 1548 1549 1549 1549 1549 1549 1550 1550 1550 1551 1551 1551 1551 1551 1552 1552 1552 1552 1552
1512 1509 1508 1510 1507 1508 1511 1513 1514 1515 1517 1519 1521 1522 1525 1527 1529 1532 1534 1536 1538 1540 1542 1543 1545 1546 1547 1548 1548 1548 1549 1549 1549 1549 1550 1550 1550 1550 1551 1551 1552 1552 1552 1552 1552 1552 1553 1553 1553
1504 1506 1509 1507 1504 1507 1510 1511 1511 1512 1515 1517 1518 1521 1523 1525 1528 1531 1533 1535 1538 1540 1542 1543 1545 1546 1547 1548 1548 1549 1549 1550 1550 1550 1550 1551 1551 1551 1551 1552 1552 1553 1553 1553 1553 1553 1554 1554 1554
1504 1508 1508 1506 1504 1507 1508 1508 1507 1509 1512 1514 1516 1518 1521 1524 1527 1529 1532 1535 1537 1539 1541 1543 1545 1546 1547 1548 1549 1550 1550 1550 1551 1551 1551 1551 1551 1552 1552 1553 1553 1553 1553 1554 1554 1554 1554 1555 1555
1504 1507 1507 1508 1505 1504 1508 1510 1506 1506 1509 1512 1514 1516 1518 1521 1524 1527 1530 1533 1536 1538 1541 1543 1544 1546 1547 1548 1549 1550 1551 1551 1551 1552 1552 1552 1552 1553 1553 1554 1554 1554 1554 1554 1555 1555 1555 1555 1556
1508 1502 1504 1505 1510 1512 1508 1519 1507 1503 1506 1509 1511 1514 1516 1519 1522 1525 1528 1532 1535 1537 1540 1542 1544 1546 1547 1548 1549 1550 1551 1552 1552 1552 1553 1553 1553 1553 1554 1554 1555 1555 1555 1555 1555 1556 1556 1556 1556
1504 1501 1503 1504 1507 1510 1505 1513 1509 1500 1505 1505 1507 1511 1514 1517 1520 1523 1527 1530 1533 1536 1539 1541 1543 1545 1546 1548 1549 1550 1551 1552 1552 1553 1553 1554 1554 1554 1555 1555 1555 1555 1556 1556 1556 1556 1557 1557 1557
1500 1502 1502 1502 1508 1519 1504 1509 1512 1501 1499 1500 1503 1507 1511 1514 1518 1522 1525 1529 1532 1535 1537 1540 1542 1544 1545 1547 1549 1550 1551 1552 1553 1553 1554 1554 1554 1555 1555 1555 1556 1556 1556 1557 1557 1557 1558 1558 1558
1501 1510 1521 1522 1524 1517 1496 1502 1505 1493 1492 1496 1499 1503 1507 1511 1515 1520 1523 1527 1530 1533 1536 1538 1541 1543 1545 1546 1548 1549 1550 1552 1553 1553 1554 1554 1555 1555 1556 1556 1556 1556 1557 1557 1558 1558 1558 1558 1558
1502 1508 1523 1531 1526 1514 1500 1505 1499 1490 1492 1494 1497 1501 1505 1509 1513 1517 1521 1524 1528 1531 1534 1537 1539 1542 1544 1546 1547 1549 1550 1551 1552 1553 1554 1554 1555 1556 1556 1556 1557 1557 1557 1558 1558 1559 1559 1559 1559
1502 1504 1501 1510 1510 1514 1509 1501 1495 1490 1492 1494 1497 1500 1503 1507 1511 1515 1519 1522 1526 1529 1532 1535 1538 1540 1543 1544 1546 1548 1549 1550 1552 1553 1554 1554 1555 1556 1556 1557 1557 1557 1558 1558 1559 1559 1559 1559 1560
1495 1496 1502 1511 1521 1524 1515 1509 1507 1497 1495 1494 1496 1499 1502 1505 1509 1513 1517 1521 1524 1527 1530 1534 1536 1539 1541 1543 1545 1547 1548 1550 1551 1552 1553 1554 1555 1556 1557 1557 1557 1558 1558 1558 1559 1559 1560 1560 1560
1496 1497 1499 1503 1505 1518 1524 1516 1493 1494 1493 1494 1495 1498 1501 1504 1507 1511 1515 1519 1522 1526 1529 1532 1535 1537 1540 1542 1544 1546 1547 1549 1550 1551 1553 1554 1555 1556 1557 1557 1558 1558 1559 1559 1559 1560 1560 1560 1560
1489 1492 1496 1510 1509 1503 1512 1513 1488 1490 1490 1492 1495 1497 1500 1503 1506 1510 1514 1517 1520 1524 1527 1530 1533 1536 1538 1540 1543 1544 1546 1548 1549 1551 1552 1554 1555 1556 1557 1557 1558 1559 1559 1560 1560 1560 1560 1560 1560